SWA694 KBUF-KBWI

Flight info

Callsign SWA694
Flight time 0h 47m
Altitude 25000
Route VAIRS DDUBS IZZEE TRISH4
Aircraft B38M/M-SADE2E3GHIJ4J7P2RWZ/LB1D1

Departure

Time 2026-05-08 19:42
Airport Buffalo Niagara International Airport (KBUF)

Arrival

Time 2026-05-08 20:30
Airport Baltimore/Washington International Thurgood Marshall Airport (KBWI)
Time Latitude Longitude Altitude Speed Heading
2026-05-08 19:36 42.93653 -78.73152 715 ft 1 kts 44°
2026-05-08 19:39 42.93660 -78.73143 715 ft 3 kts 44°
2026-05-08 19:39 42.93698 -78.73093 715 ft 13 kts 44°
2026-05-08 19:39 42.93752 -78.73022 714 ft 19 kts 43°
2026-05-08 19:39 42.93877 -78.72963 721 ft 20 kts 24°
2026-05-08 19:40 42.94056 -78.72736 716 ft 32 kts 44°
2026-05-08 19:40 42.94231 -78.72506 720 ft 35 kts 44°
2026-05-08 19:40 42.94384 -78.72306 722 ft 32 kts 44°
2026-05-08 19:40 42.94541 -78.72101 721 ft 33 kts 44°
2026-05-08 19:41 42.94706 -78.71883 720 ft 28 kts 43°
2026-05-08 19:41 42.94778 -78.71818 722 ft 17 kts
2026-05-08 19:41 42.94816 -78.71947 721 ft 18 kts 225°
2026-05-08 19:41 42.94664 -78.72147 716 ft 54 kts 224°
2026-05-08 19:42 42.94253 -78.72681 718 ft 107 kts 223°
2026-05-08 19:42 42.93609 -78.73526 723 ft 148 kts 224°
2026-05-08 19:42 42.92812 -78.74588 888 ft 165 kts 225°
2026-05-08 19:42 42.92001 -78.75703 1447 ft 162 kts 227°
2026-05-08 19:43 42.91169 -78.76741 1971 ft 167 kts 216°
2026-05-08 19:43 42.90074 -78.77289 2444 ft 176 kts 190°
2026-05-08 19:43 42.88789 -78.77152 2850 ft 195 kts 173°
2026-05-08 19:43 42.87382 -78.76840 3214 ft 216 kts 176°
2026-05-08 19:44 42.85830 -78.76528 3404 ft 236 kts 177°
2026-05-08 19:44 42.84164 -78.76198 3967 ft 247 kts 175°
2026-05-08 19:44 42.82404 -78.75854 4507 ft 264 kts 176°
2026-05-08 19:44 42.80552 -78.75497 5204 ft 269 kts 176°
2026-05-08 19:45 42.78699 -78.75135 6117 ft 270 kts 176°
2026-05-08 19:45 42.76820 -78.74769 6857 ft 274 kts 177°
2026-05-08 19:45 42.74920 -78.74399 7586 ft 278 kts 177°
2026-05-08 19:45 42.72994 -78.74025 8315 ft 281 kts 178°
2026-05-08 19:46 42.71050 -78.73647 9069 ft 284 kts 178°
2026-05-08 19:46 42.69086 -78.73265 9792 ft 287 kts 178°
2026-05-08 19:46 42.65013 -78.72480 10556 ft 315 kts 179°
2026-05-08 19:47 42.62775 -78.72053 10771 ft 334 kts 179°
2026-05-08 19:47 42.60411 -78.71600 11016 ft 351 kts 178°
2026-05-08 19:47 42.57927 -78.71121 11462 ft 358 kts 178°
2026-05-08 19:47 42.55450 -78.70642 12076 ft 362 kts 179°
2026-05-08 19:48 42.52970 -78.70161 12703 ft 366 kts 179°
2026-05-08 19:48 42.50423 -78.69668 13340 ft 371 kts 179°
2026-05-08 19:48 42.47849 -78.69169 13969 ft 376 kts 179°
2026-05-08 19:48 42.45240 -78.68667 14497 ft 381 kts 180°
2026-05-08 19:49 42.42608 -78.68156 15145 ft 384 kts 180°
2026-05-08 19:49 42.39951 -78.67644 15686 ft 385 kts 181°
2026-05-08 19:49 42.37271 -78.67132 15829 ft 392 kts 180°
2026-05-08 19:49 42.34577 -78.66607 16521 ft 393 kts 180°
2026-05-08 19:50 42.31849 -78.66080 17093 ft 398 kts 180°
2026-05-08 19:50 42.29093 -78.65550 17710 ft 402 kts 180°
2026-05-08 19:50 42.26310 -78.65013 18307 ft 406 kts 180°
2026-05-08 19:50 42.23495 -78.64472 18776 ft 410 kts 180°
2026-05-08 19:51 42.20661 -78.63929 19313 ft 413 kts 180°
2026-05-08 19:51 42.17803 -78.63367 19790 ft 418 kts 178°
2026-05-08 19:51 42.14996 -78.62110 20346 ft 434 kts 160°
2026-05-08 19:51 42.12463 -78.59762 20818 ft 451 kts 142°
2026-05-08 19:52 42.10236 -78.56751 21330 ft 455 kts 141°
2026-05-08 19:52 42.07945 -78.53790 21773 ft 459 kts 141°
2026-05-08 19:52 42.05646 -78.50782 22269 ft 462 kts 140°
2026-05-08 19:52 42.03378 -78.47790 22733 ft 465 kts 140°
2026-05-08 19:53 42.01063 -78.44726 23138 ft 469 kts 140°
2026-05-08 19:53 41.98728 -78.41635 23573 ft 473 kts 140°
2026-05-08 19:53 41.96376 -78.38526 23937 ft 476 kts 140°
2026-05-08 19:53 41.94008 -78.35398 24306 ft 479 kts 140°
2026-05-08 19:54 41.91627 -78.32257 24682 ft 481 kts 141°
2026-05-08 19:54 41.89222 -78.29087 24956 ft 486 kts 141°
2026-05-08 19:54 41.86790 -78.25885 25003 ft 494 kts 141°
2026-05-08 19:54 41.84312 -78.22625 24991 ft 503 kts 140°
2026-05-08 19:55 41.81790 -78.19313 24982 ft 511 kts 140°
2026-05-08 19:55 41.79235 -78.15968 25018 ft 516 kts 141°
2026-05-08 19:55 41.76662 -78.12592 24968 ft 518 kts 140°
2026-05-08 19:55 41.74086 -78.09216 24986 ft 519 kts 140°
2026-05-08 19:56 41.71506 -78.05842 24997 ft 518 kts 140°
2026-05-08 19:56 41.68926 -78.02474 24984 ft 518 kts 141°
2026-05-08 19:56 41.66341 -77.99103 24992 ft 518 kts 141°
2026-05-08 19:56 41.63765 -77.95747 24991 ft 518 kts 141°
2026-05-08 19:57 41.61178 -77.92380 24976 ft 518 kts 141°
2026-05-08 19:57 41.58594 -77.89022 24961 ft 518 kts 141°
2026-05-08 19:57 41.56008 -77.85664 24996 ft 519 kts 141°
2026-05-08 19:57 41.53419 -77.82306 24962 ft 519 kts 141°
2026-05-08 19:58 41.50820 -77.78962 24954 ft 518 kts 142°
2026-05-08 19:58 41.47963 -77.76173 24943 ft 502 kts 159°
2026-05-08 19:58 41.44824 -77.74418 25000 ft 494 kts 168°
2026-05-08 19:58 41.41580 -77.72913 24969 ft 493 kts 169°
2026-05-08 19:59 41.38327 -77.71479 25000 ft 493 kts 169°
2026-05-08 19:59 41.35066 -77.70068 24985 ft 492 kts 170°
2026-05-08 19:59 41.31801 -77.68679 24994 ft 492 kts 170°
2026-05-08 19:59 41.28537 -77.67300 24960 ft 492 kts 170°
2026-05-08 20:00 41.25280 -77.65931 24986 ft 491 kts 171°
2026-05-08 20:00 41.22017 -77.64560 25003 ft 492 kts 170°
2026-05-08 20:00 41.18757 -77.63192 24984 ft 492 kts 171°
2026-05-08 20:00 41.15489 -77.61821 25000 ft 492 kts 171°
2026-05-08 20:01 41.12220 -77.60451 25006 ft 492 kts 170°
2026-05-08 20:01 41.08959 -77.59086 24966 ft 491 kts 171°
2026-05-08 20:01 41.05695 -77.57723 24960 ft 491 kts 171°
2026-05-08 20:01 41.02434 -77.56362 24941 ft 491 kts 171°
2026-05-08 20:02 40.99176 -77.55002 24955 ft 492 kts 171°
2026-05-08 20:02 40.95913 -77.53640 24947 ft 492 kts 170°
2026-05-08 20:02 40.92737 -77.51826 24943 ft 505 kts 157°
2026-05-08 20:02 40.89679 -77.49503 24957 ft 506 kts 158°
2026-05-08 20:03 40.86658 -77.47245 24933 ft 506 kts 158°
2026-05-08 20:03 40.83601 -77.44948 24950 ft 506 kts 158°
2026-05-08 20:03 40.80540 -77.42643 24955 ft 506 kts 158°
2026-05-08 20:03 40.77479 -77.40341 24943 ft 505 kts 158°
2026-05-08 20:04 40.74425 -77.38047 24948 ft 505 kts 158°
2026-05-08 20:04 40.71374 -77.35758 24940 ft 505 kts 158°
2026-05-08 20:04 40.68322 -77.33470 24955 ft 505 kts 158°
2026-05-08 20:04 40.65260 -77.31178 24933 ft 504 kts 158°
2026-05-08 20:05 40.62242 -77.28920 24953 ft 496 kts 158°
2026-05-08 20:05 40.59259 -77.26691 24954 ft 492 kts 158°
2026-05-08 20:05 40.56286 -77.24472 24085 ft 495 kts 158°
2026-05-08 20:05 40.53248 -77.22209 22851 ft 507 kts 157°
2026-05-08 20:06 40.50167 -77.19911 21932 ft 507 kts 157°
2026-05-08 20:06 40.47139 -77.17656 21170 ft 495 kts 156°
2026-05-08 20:06 40.44172 -77.15450 20332 ft 485 kts 156°
2026-05-08 20:06 40.41252 -77.13281 19414 ft 479 kts 156°
2026-05-08 20:07 40.38391 -77.11160 18802 ft 466 kts 156°
2026-05-08 20:07 40.35606 -77.09095 18236 ft 454 kts 156°
2026-05-08 20:07 40.32888 -77.07085 17592 ft 443 kts 156°
2026-05-08 20:07 40.30241 -77.05120 17058 ft 432 kts 155°
2026-05-08 20:08 40.27894 -77.02768 16492 ft 430 kts 139°
2026-05-08 20:08 40.25779 -77.00086 16069 ft 419 kts 140°
2026-05-08 20:08 40.23695 -76.97437 15560 ft 421 kts 139°
2026-05-08 20:08 40.21597 -76.94745 14994 ft 425 kts 139°
2026-05-08 20:09 40.19486 -76.92025 14512 ft 425 kts 139°
2026-05-08 20:09 40.17388 -76.89320 14002 ft 422 kts 139°
2026-05-08 20:09 40.15313 -76.86643 13407 ft 418 kts 138°
2026-05-08 20:09 40.13245 -76.83982 12892 ft 416 kts 138°
2026-05-08 20:10 40.11199 -76.81350 12402 ft 410 kts 138°
2026-05-08 20:10 40.09178 -76.78752 11926 ft 403 kts 137°
2026-05-08 20:10 40.07193 -76.76203 11499 ft 396 kts 138°
2026-05-08 20:10 40.05275 -76.73740 11331 ft 377 kts 138°
2026-05-08 20:11 40.03451 -76.71403 11167 ft 359 kts 138°
2026-05-08 20:11 40.01712 -76.69174 10985 ft 342 kts 138°
2026-05-08 20:11 40.00050 -76.67047 10833 ft 327 kts 139°
2026-05-08 20:11 39.98464 -76.65017 10680 ft 312 kts 139°
2026-05-08 20:12 39.96945 -76.63075 10544 ft 300 kts 139°
2026-05-08 20:12 39.95475 -76.61197 10403 ft 292 kts 139°
2026-05-08 20:12 39.94043 -76.59369 10266 ft 284 kts 139°
2026-05-08 20:12 39.92651 -76.57591 10145 ft 287 kts 139°
2026-05-08 20:13 39.91206 -76.55755 10036 ft 292 kts 141°
2026-05-08 20:13 39.89521 -76.54377 9938 ft 283 kts 165°
2026-05-08 20:13 39.87658 -76.53554 9904 ft 284 kts 166°
2026-05-08 20:13 39.85788 -76.52715 9868 ft 284 kts 166°
2026-05-08 20:14 39.83922 -76.51891 9851 ft 283 kts 166°
2026-05-08 20:14 39.82056 -76.51075 9777 ft 282 kts 166°
2026-05-08 20:14 39.80196 -76.50267 9727 ft 282 kts 166°
2026-05-08 20:14 39.78322 -76.49456 9690 ft 284 kts 166°
2026-05-08 20:15 39.76447 -76.48647 9649 ft 284 kts 166°
2026-05-08 20:15 39.74572 -76.47837 9596 ft 283 kts 166°
2026-05-08 20:15 39.72720 -76.47038 9542 ft 284 kts 166°
2026-05-08 20:15 39.70850 -76.46231 9496 ft 283 kts 166°
2026-05-08 20:16 39.68977 -76.45421 9449 ft 283 kts 166°
2026-05-08 20:16 39.67107 -76.44613 9391 ft 282 kts 166°
2026-05-08 20:16 39.65245 -76.43809 9352 ft 281 kts 167°
2026-05-08 20:16 39.63390 -76.43007 9303 ft 281 kts 167°
2026-05-08 20:17 39.61532 -76.42206 9273 ft 281 kts 166°
2026-05-08 20:17 39.59681 -76.41408 9221 ft 280 kts 167°
2026-05-08 20:17 39.57832 -76.40610 9173 ft 280 kts 167°
2026-05-08 20:17 39.55976 -76.39811 9138 ft 281 kts 167°
2026-05-08 20:18 39.54126 -76.39014 9076 ft 280 kts 167°
2026-05-08 20:18 39.52278 -76.38219 9021 ft 280 kts 167°
2026-05-08 20:18 39.50425 -76.37677 8803 ft 273 kts 186°
2026-05-08 20:18 39.48585 -76.38075 8409 ft 267 kts 199°
2026-05-08 20:19 39.46770 -76.38645 8028 ft 269 kts 199°
2026-05-08 20:19 39.44947 -76.39227 7619 ft 270 kts 199°
2026-05-08 20:19 39.43116 -76.39822 7248 ft 272 kts 199°
2026-05-08 20:19 39.41281 -76.40426 6900 ft 274 kts 199°
2026-05-08 20:20 39.39418 -76.41043 6498 ft 279 kts 199°
2026-05-08 20:20 39.37525 -76.41672 6068 ft 282 kts 199°
2026-05-08 20:20 39.35629 -76.42303 5743 ft 281 kts 199°
2026-05-08 20:20 39.33765 -76.42923 5512 ft 271 kts 199°
2026-05-08 20:21 39.31983 -76.43515 5337 ft 258 kts 199°
2026-05-08 20:21 39.30272 -76.44085 5150 ft 250 kts 199°
2026-05-08 20:21 39.28628 -76.44632 5092 ft 237 kts 200°
2026-05-08 20:21 39.27073 -76.45149 4931 ft 227 kts 200°
2026-05-08 20:22 39.25551 -76.45655 4633 ft 224 kts 200°
2026-05-08 20:22 39.24061 -76.46150 4375 ft 219 kts 200°
2026-05-08 20:22 39.22620 -76.46628 4180 ft 214 kts 199°
2026-05-08 20:22 39.21647 -76.46951 4074 ft 214 kts 200°
2026-05-08 20:23 39.19700 -76.47543 4031 ft 218 kts 198°
2026-05-08 20:23 39.18223 -76.47984 4019 ft 218 kts 198°
2026-05-08 20:23 39.16747 -76.48427 4013 ft 218 kts 198°
2026-05-08 20:23 39.15262 -76.48873 4018 ft 218 kts 198°
2026-05-08 20:24 39.13768 -76.49238 4003 ft 223 kts 185°
2026-05-08 20:24 39.12273 -76.48742 3972 ft 223 kts 154°
2026-05-08 20:24 39.11071 -76.47683 4102 ft 197 kts 150°
2026-05-08 20:24 39.09942 -76.46690 3720 ft 197 kts 156°
2026-05-08 20:25 39.08654 -76.46428 3188 ft 182 kts 201°
2026-05-08 20:25 39.07634 -76.47164 3012 ft 165 kts 228°
2026-05-08 20:25 39.07014 -76.48380 2888 ft 163 kts 252°
2026-05-08 20:25 39.06888 -76.49815 2768 ft 163 kts 271°
2026-05-08 20:26 39.06879 -76.51271 2665 ft 162 kts 269°
2026-05-08 20:26 39.06848 -76.52716 2541 ft 161 kts 269°
2026-05-08 20:26 39.06817 -76.54158 2473 ft 161 kts 269°
2026-05-08 20:26 39.06785 -76.55589 2440 ft 160 kts 269°
2026-05-08 20:27 39.07070 -76.56962 2362 ft 163 kts 299°
2026-05-08 20:27 39.07783 -76.58116 2268 ft 166 kts 311°
2026-05-08 20:27 39.08362 -76.58761 2122 ft 165 kts 317°
2026-05-08 20:27 39.09584 -76.59913 1842 ft 165 kts 320°
2026-05-08 20:28 39.10518 -76.60775 1626 ft 165 kts 319°
2026-05-08 20:28 39.11444 -76.61638 1418 ft 163 kts 321°
2026-05-08 20:28 39.12362 -76.62482 1175 ft 163 kts 319°
2026-05-08 20:28 39.12991 -76.63062 1062 ft 165 kts 320°
2026-05-08 20:29 39.13923 -76.63917 815 ft 163 kts 320°
2026-05-08 20:29 39.14897 -76.64813 628 ft 177 kts 320°
2026-05-08 20:29 39.15877 -76.65744 347 ft 175 kts 322°
2026-05-08 20:29 39.16855 -76.66633 164 ft 171 kts 318°
2026-05-08 20:30 39.17674 -76.67410 146 ft 110 kts 322°
2026-05-08 20:30 39.18065 -76.67760 147 ft 22 kts 329°
2026-05-08 20:30 39.18155 -76.67683 148 ft 11 kts 121°
2026-05-08 20:30 39.18071 -76.67593 149 ft 21 kts 144°
2026-05-08 20:31 39.17978 -76.67487 151 ft 8 kts 96°
2026-05-08 20:31 39.17994 -76.67426 155 ft 9 kts 95°
2026-05-08 20:31 39.17981 -76.67367 156 ft 1 kts 79°
2026-05-08 20:31 39.17997 -76.67333 157 ft 2 kts 52°
2026-05-08 20:32 39.18002 -76.67324 157 ft 0 kts 51°